CAPE
0 0 0 0 0 0 0 0 0 0 0 0 0 0 0 0 0 0 0 0 0 1 434 677 681 913 1742 1685 1703 1671 1611 1503 1406 1363 1166 955 844 710 548 408 234 90 57 49 42 55 281 1140 974
0 0 0 0 0 0 0 0 0 0 0 0 0 0 0 0 0 0 0 0 0 3 76 793 843 988 1653 1759 1657 1704 1482 1398 1603 1438 1126 1019 854 752 503 405 259 163 113 64 48 51 244 1082 834
0 0 0 0 0 0 0 0 0 0 0 0 0 0 0 0 0 0 0 0 0 0 36 569 1017 1268 1581 1707 1668 1577 1514 1450 1383 1274 1103 1042 990 868 599 438 295 334 340 138 54 29 195 1079 774
0 0 0 0 0 0 0 0 0 0 0 0 0 0 0 0 0 0 0 0 0 0 0 272 443 715 1114 1562 1563 1482 1410 1357 1244 1168 1110 1047 1003 778 584 387 339 459 531 773 294 84 108 993 803
0 0 0 0 0 0 0 0 0 0 0 0 0 0 0 0 0 0 0 0 0 0 0 126 175 209 317 912 1431 1335 1344 1227 1012 930 876 937 923 740 533 475 451 576 636 691 845 561 224 907 780
0 0 0 0 0 0 0 0 0 0 0 0 0 0 0 0 0 0 0 0 0 0 0 0 58 143 211 194 832 1248 1167 1243 1127 801 904 815 728 684 643 751 708 576 410 561 806 758 349 968 734
0 0 0 0 0 0 0 0 0 0 0 0 0 0 0 0 0 0 0 0 0 0 0 0 0 5 75 185 207 357 930 1134 1176 1163 834 836 611 513 437 574 626 529 392 529 641 615 622 979 695
0 0 0 0 0 0 0 0 0 0 0 0 0 0 0 0 0 0 0 0 0 0 0 0 0 0 0 0 167 266 319 454 912 1031 982 744 531 422 332 348 480 525 433 393 424 578 642 868 561
0 0 0 0 0 0 0 0 0 0 0 0 0 0 0 0 0 0 0 0 0 0 0 0 0 0 0 0 0 61 186 402 511 565 661 655 396 333 247 239 221 271 326 355 363 541 707 766 379
0 0 0 0 0 0 0 0 0 0 0 0 0 0 0 0 0 0 0 0 0 0 0 0 0 0 0 0 0 0 1 348 407 367 252 281 431 273 234 341 330 338 278 335 430 604 671 384 304
0 0 0 0 0 0 0 0 0 0 0 0 0 0 0 0 0 0 0 0 0 0 0 0 0 0 0 0 0 0 2 20 173 378 491 462 420 383 250 225 253 274 206 145 383 454 368 362 243
0 0 0 0 0 0 0 0 0 0 0 0 0 0 0 0 0 0 0 0 0 0 0 0 0 0 0 0 0 0 0 0 18 160 280 362 435 424 364 366 314 229 249 92 67 15 88 64 91
0 0 0 0 0 0 0 0 0 0 0 0 0 0 0 0 0 0 0 0 0 0 0 0 0 0 0 0 0 0 0 0 0 8 116 166 346 388 426 437 453 295 228 54 31 0 12 0 1
0 0 0 0 0 0 0 0 0 0 0 0 0 0 0 0 0 0 0 0 0 0 0 0 0 0 0 0 0 0 0 0 5 3 38 95 199 357 420 388 370 275 198 41 36 7 0 0 0
0 0 0 0 0 0 0 0 0 0 0 0 0 0 0 0 0 0 0 0 0 0 0 0 0 0 0 0 0 0 0 0 0 0 16 70 137 207 363 423 398 318 171 64 14 0 1 0 0
0 0 0 0 0 0 0 0 0 0 0 0 0 0 0 0 0 0 0 0 0 0 0 0 0 0 0 0 0 0 0 0 0 0 1 15 75 155 249 448 466 336 180 70 27 2 0 0 2
0 0 0 0 0 0 0 0 0 0 0 0 0 0 0 0 0 0 0 0 0 0 0 0 0 0 0 0 0 0 0 0 0 0 0 0 3 52 191 372 468 344 152 27 15 6 7 10 3
0 0 0 0 0 0 0 0 0 0 0 0 0 0 0 0 0 0 0 0 0 0 0 0 0 0 0 0 0 0 0 0 0 0 0 0 0 0 2 248 323 127 28 3 1 0 2 1 3
0 0 0 0 0 0 0 0 0 0 0 0 0 0 0 0 0 0 0 0 0 0 0 0 0 0 0 0 0 0 0 0 0 0 0 0 0 0 0 0 106 260 116 10 1 1 1 1 2
0 0 0 0 0 0 0 0 0 0 0 0 0 0 0 0 0 0 0 0 0 0 0 0 0 0 0 0 0 0 0 0 0 0 0 0 0 0 0 0 0 65 243 84 49 5 2 1 5
0 0 0 0 0 0 0 0 0 0 0 0 0 0 0 0 0 0 0 0 0 0 0 0 0 0 0 0 0 0 0 0 0 0 0 0 0 0 0 5 0 0 106 41 8 7 1 1 4
0 0 0 0 0 0 0 0 0 0 0 0 0 0 0 0 0 0 0 0 0 0 0 0 0 0 0 0 0 0 0 0 0 0 0 0 0 0 0 9 37 0 3 59 54 12 2 1 1
0 0 0 0 0 0 0 0 0 0 0 0 0 0 0 0 0 0 0 0 0 0 0 0 0 0 0 0 0 0 0 0 0 0 0 0 0 2 0 0 4 3 0 9 35 1 1 1 1
0 0 0 0 0 0 0 0 0 0 0 0 0 0 0 0 0 0 0 0 0 0 0 0 0 0 0 0 0 0 0 0 0 0 0 0 0 4 0 0 0 8 0 7 98 28 14 10 3
0 0 0 0 0 0 0 0 0 0 0 0 0 0 0 0 0 0 0 0 0 0 0 0 0 0 0 0 0 0 0 0 0 0 0 2 3 13 0 0 0 6 0 0 14 7 16 12 3
0 0 0 0 0 0 0 0 0 0 0 0 0 0 0 0 0 0 0 0 0 0 0 0 0 0 0 0 0 0 0 0 0 0 0 0 0 36 13 0 0 3 0 6 4 45 67 0 0
0 0 0 0 0 0 0 0 0 0 0 0 0 0 0 0 0 0 0 0 0 0 0 0 0 0 0 0 0 0 0 0 0 0 0 0 0 0 32 0 0 0 0 0 1 0 43 4 3
0 0 0 0 0 0 0 0 0 0 0 0 0 0 0 0 0 0 0 0 0 0 0 0 0 0 0 0 0 0 0 0 0 0 0 0 0 0 7 6 0 0 0 0 5 0 19 12 9
0 0 0 0 0 0 0 0 0 0 0 0 0 0 0 0 0 0 0 0 0 0 0 0 0 0 0 0 0 0 0 0 0 0 0 0 0 0 0 11 0 0 0 0 0 0 2 26 27
0 0 0 0 0 0 0 0 0 0 0 0 0 0 0 0 0 0 0 0 0 0 0 0 0 0 0 0 0 0 0 1 0 0 0 0 0 0 0 0 0 0 0 0 0 1 2 8 12
CIN
-0 -0 -0 -0 -0 -0 -0 -0 -0 -0 -0 -0 -0 -0 -0 -0 -0 -0 -0 -0 -0 -72 -146 -112 -150 -109 -27 -18 -3 -1 -1 -0 -0 -0 -0 -2 -0 -1 -24 -46 -91 -153 -164 -162 -197 -209 -94 -0 -2
-0 -0 -0 -0 -0 -0 -0 -0 -0 -0 -0 -0 -0 -0 -0 -0 -0 -0 -0 -0 -0 -223 -378 -37 -94 -94 -28 -16 -15 -1 -5 -4 -0 -0 -1 -0 -5 -1 -5 -22 -60 -97 -138 -161 -156 -176 -80 -0 -7
-0 -0 -0 -0 -0 -0 -0 -0 -0 -0 -0 -0 -0 -0 -0 -0 -0 -0 -0 -0 -0 -0 -403 -116 -71 -57 -43 -17 -9 -7 -2 -2 -1 -0 -0 -0 -0 -0 -9 -8 -25 -20 -33 -119 -182 -163 -70 -0 -14
-0 -0 -0 -0 -0 -0 -0 -0 -0 -0 -0 -0 -0 -0 -0 -0 -0 -0 -0 -0 -0 -0 -0 -261 -184 -101 -25 -8 -9 -3 -2 -2 -2 -0 -1 -0 -0 -2 -7 -22 -13 -4 -0 -0 -44 -142 -93 -0 -1
-0 -0 -0 -0 -0 -0 -0 -0 -0 -0 -0 -0 -0 -0 -0 -0 -0 -0 -0 -0 -0 -0 -0 -386 -330 -299 -239 -46 -2 -3 -3 -2 -3 -8 -8 -5 -2 -8 -31 -19 -11 -2 -0 -0 -0 -0 -55 -0 -2
-0 -0 -0 -0 -0 -0 -0 -0 -0 -0 -0 -0 -0 -0 -0 -0 -0 -0 -0 -0 -0 -0 -0 -0 -475 -416 -364 -308 -40 -1 -2 -2 -4 -13 -5 -8 -18 -18 -14 -8 -4 -4 -11 -3 -0 -1 -16 -0 -3
-0 -0 -0 -0 -0 -0 -0 -0 -0 -0 -0 -0 -0 -0 -0 -0 -0 -0 -0 -0 -0 -0 -0 -0 -0 -117 -459 -358 -350 -177 -19 -1 -1 -0 -3 -5 -20 -25 -27 -15 -18 -16 -20 -9 -3 -4 -2 -0 -5
-0 -0 -0 -0 -0 -0 -0 -0 -0 -0 -0 -0 -0 -0 -0 -0 -0 -0 -0 -0 -0 -0 -0 -0 -0 -0 -0 -32 -308 -248 -155 -102 -14 -0 -4 -3 -31 -43 -62 -35 -23 -22 -32 -27 -24 -7 -3 -0 -5
-0 -0 -0 -0 -0 -0 -0 -0 -0 -0 -0 -0 -0 -0 -0 -0 -0 -0 -0 -0 -0 -0 -0 -0 -0 -0 -0 -0 -0 -290 -261 -108 -73 -46 -13 -13 -39 -69 -87 -86 -67 -44 -38 -35 -36 -19 -2 -1 -2
-0 -0 -0 -0 -0 -0 -0 -0 -0 -0 -0 -0 -0 -0 -0 -0 -0 -0 -0 -0 -0 -0 -0 -0 -0 -0 -0 -0 -0 -0 -5 -130 -71 -80 -140 -93 -39 -63 -79 -35 -43 -32 -37 -35 -30 -21 -1 -6 -16
-0 -0 -0 -0 -0 -0 -0 -0 -0 -0 -0 -0 -0 -0 -0 -0 -0 -0 -0 -0 -0 -0 -0 -0 -0 -0 -0 -0 -0 -0 -0 -121 -245 -72 -15 -8 -7 -46 -47 -61 -53 -35 -60 -49 -30 -11 -5 -4 -29
-0 -0 -0 -0 -0 -0 -0 -0 -0 -0 -0 -0 -0 -0 -0 -0 -0 -0 -0 -0 -0 -0 -0 -0 -0 -0 -0 -0 -0 -0 -0 -0 -141 -234 -77 -34 -21 -9 -37 -39 -20 -34 -44 -131 -106 -114 -75 -24 -38
-0 -0 -0 -0 -0 -0 -0 -0 -0 -0 -0 -0 -0 -0 -0 -0 -0 -0 -0 -0 -0 -0 -0 -0 -0 -0 -0 -0 -0 -0 -0 -0 -0 -7 -252 -113 -28 -17 -9 -12 -19 -39 -50 -155 -160 -0 -104 -0 -0
-0 -0 -0 -0 -0 -0 -0 -0 -0 -0 -0 -0 -0 -0 -0 -0 -0 -0 -0 -0 -0 -0 -0 -0 -0 -0 -0 -0 -0 -0 -0 -0 -1 -1 -303 -215 -76 -14 -10 -8 -5 -43 -50 -143 -184 -89 -0 -0 -0
-0 -0 -0 -0 -0 -0 -0 -0 -0 -0 -0 -0 -0 -0 -0 -0 -0 -0 -0 -0 -0 -0 -0 -0 -0 -0 -0 -0 -0 -0 -0 -0 -0 -0 -0 -194 -139 -59 -5 -10 -7 -20 -57 -81 -73 -0 -0 -0 -0
-0 -0 -0 -0 -0 -0 -0 -0 -0 -0 -0 -0 -0 -0 -0 -0 -0 -0 -0 -0 -0 -0 -0 -0 -0 -0 -0 -0 -0 -0 -0 -0 -0 -0 -0 -0 -125 -87 -22 -4 -5 -12 -32 -65 -55 -9 -0 -0 -0
-0 -0 -0 -0 -0 -0 -0 -0 -0 -0 -0 -0 -0 -0 -0 -0 -0 -0 -0 -0 -0 -0 -0 -0 -0 -0 -0 -0 -0 -0 -0 -0 -0 -0 -0 -0 -0 -56 -32 -1 -8 -6 -57 -90 -52 -56 -64 -97 -51
-0 -0 -0 -0 -0 -0 -0 -0 -0 -0 -0 -0 -0 -0 -0 -0 -0 -0 -0 -0 -0 -0 -0 -0 -0 -0 -0 -0 -0 -0 -0 -0 -0 -0 -0 -0 -0 -0 -0 -1 -1 -3 -8 -59 -0 -0 -0 -34 -123
-0 -0 -0 -0 -0 -0 -0 -0 -0 -0 -0 -0 -0 -0 -0 -0 -0 -0 -0 -0 -0 -0 -0 -0 -0 -0 -0 -0 -0 -0 -0 -0 -0 -0 -0 -0 -0 -0 -0 -0 -2 -1 -0 -14 -0 -0 -0 -0 -0
-0 -0 -0 -0 -0 -0 -0 -0 -0 -0 -0 -0 -0 -0 -0 -0 -0 -0 -0 -0 -0 -0 -0 -0 -0 -0 -0 -0 -0 -0 -0 -0 -0 -0 -0 -0 -0 -0 -0 -0 -0 -0 -0 -13 -43 -74 -10 -11 -31
-0 -0 -0 -0 -0 -0 -0 -0 -0 -0 -0 -0 -0 -0 -0 -0 -0 -0 -0 -0 -0 -0 -0 -0 -0 -0 -0 -0 -0 -0 -0 -0 -0 -0 -0 -0 -0 -0 -0 -0 -0 -0 -0 -7 -28 -70 -28 -0 -13
-0 -0 -0 -0 -0 -0 -0 -0 -0 -0 -0 -0 -0 -0 -0 -0 -0 -0 -0 -0 -0 -0 -0 -0 -0 -0 -0 -0 -0 -0 -0 -0 -0 -0 -0 -0 -0 -0 -0 -0 -1 -0 -0 -0 -1 -60 -41 -1 -0
-0 -0 -0 -0 -0 -0 -0 -0 -0 -0 -0 -0 -0 -0 -0 -0 -0 -0 -0 -0 -0 -0 -0 -0 -0 -0 -0 -0 -0 -0 -0 -0 -0 -0 -0 -0 -0 -13 -0 -0 -0 -3 -0 -0 -3 -0 -52 -17 -0
-0 -0 -0 -0 -0 -0 -0 -0 -0 -0 -0 -0 -0 -0 -0 -0 -0 -0 -0 -0 -0 -0 -0 -0 -0 -0 -0 -0 -0 -0 -0 -0 -0 -0 -0 -0 -0 -12 -0 -0 -0 -0 -0 -0 -0 -13 -12 -16 -25
-0 -0 -0 -0 -0 -0 -0 -0 -0 -0 -0 -0 -0 -0 -0 -0 -0 -0 -0 -0 -0 -0 -0 -0 -0 -0 -0 -0 -0 -0 -0 -0 -0 -0 -0 -3 -1 -9 -0 -0 -0 -0 -0 -0 -2 -7 -24 -11 -33
-0 -0 -0 -0 -0 -0 -0 -0 -0 -0 -0 -0 -0 -0 -0 -0 -0 -0 -0 -0 -0 -0 -0 -0 -0 -0 -0 -0 -0 -0 -0 -0 -0 -0 -0 -0 -0 -3 -17 -0 -0 -0 -0 -1 -0 -0 -2 -0 -0
-0 -0 -0 -0 -0 -0 -0 -0 -0 -0 -0 -0 -0 -0 -0 -0 -0 -0 -0 -0 -0 -0 -0 -0 -0 -0 -0 -0 -0 -0 -0 -0 -0 -0 -0 -0 -0 -0 -8 -0 -0 -0 -0 -0 -0 -0 -1 -21 -8
-0 -0 -0 -0 -0 -0 -0 -0 -0 -0 -0 -0 -0 -0 -0 -0 -0 -0 -0 -0 -0 -0 -0 -0 -0 -0 -0 -0 -0 -0 -0 -0 -0 -0 -0 -0 -0 -0 -0 -15 -0 -0 -0 -0 -0 -0 -0 -17 -8
-0 -0 -0 -0 -0 -0 -0 -0 -0 -0 -0 -0 -0 -0 -0 -0 -0 -0 -0 -0 -0 -0 -0 -0 -0 -0 -0 -0 -0 -0 -0 -0 -0 -0 -0 -0 -0 -0 -0 -3 -0 -0 -0 -0 -0 -0 -0 -21 -4
-0 -0 -0 -0 -0 -0 -0 -0 -0 -0 -0 -0 -0 -0 -0 -0 -0 -0 -0 -0 -0 -0 -0 -0 -0 -0 -0 -0 -0 -0 -0 -0 -0 -0 -0 -0 -0 -0 -0 -0 -0 -0 -0 -0 -0 -0 -0 -1 -0
Wind_Speed
10 13 12 14 15 19 25 21 17 21 19 20 16 17 16 15 19 18 16 23 17 13 15 13 10 9 8 8 7 5 2 2 1 1 2 5 10 19 21 25 25 25 25 25 22 22 21 19 16
10 12 14 15 18 18 20 18 20 21 19 16 14 16 16 17 22 15 17 26 22 17 19 14 11 9 7 5 5 3 3 1 1 3 7 8 9 13 18 23 25 26 26 25 25 23 21 20 16
12 13 15 15 17 22 19 20 21 18 19 20 18 16 17 16 20 18 25 27 29 24 21 21 16 14 8 5 3 2 1 1 2 4 7 11 14 14 14 19 22 24 27 26 26 25 24 18 15
14 14 13 16 20 19 21 23 22 20 18 18 20 19 19 29 21 28 32 33 30 28 24 21 21 18 13 10 9 4 4 3 5 6 6 10 14 17 17 16 19 23 24 26 26 27 26 21 15
14 13 13 14 18 19 18 21 20 18 19 20 19 16 23 31 30 32 34 33 33 32 30 26 24 23 20 15 13 12 9 9 7 8 10 10 12 17 18 19 18 25 23 27 27 28 28 23 17
16 15 15 15 19 19 18 22 19 23 20 21 18 17 21 30 33 33 34 33 33 33 32 31 28 25 23 19 20 19 16 14 14 11 11 13 13 12 18 20 21 24 23 25 29 30 27 24 20
17 17 16 17 17 16 18 22 22 21 23 21 18 13 20 33 33 33 33 33 34 34 35 36 35 31 24 23 25 21 24 24 20 20 17 16 16 15 15 19 21 23 25 26 27 28 28 23 21
18 16 16 18 20 18 18 19 21 21 21 19 21 20 21 31 32 32 32 33 34 35 36 38 38 38 35 32 28 27 24 23 26 23 26 23 21 19 18 18 20 22 24 26 27 26 24 22 21
18 17 17 20 21 20 20 22 23 16 19 24 25 24 24 28 30 31 32 34 35 35 37 39 40 40 40 39 36 34 32 27 26 26 26 29 26 25 22 20 20 20 23 25 26 23 22 21 22
19 19 19 19 22 21 23 21 20 17 20 21 23 26 26 28 31 32 33 34 35 37 38 40 41 41 41 40 39 38 39 35 31 29 28 28 29 28 26 23 20 20 21 24 24 19 18 19 22
20 20 18 19 22 22 20 20 18 15 19 22 21 24 26 29 31 33 33 34 35 35 38 40 41 42 41 42 40 39 39 40 39 36 30 29 28 29 29 26 22 21 21 22 21 18 17 19 21
21 17 18 20 21 20 20 18 19 19 18 19 21 23 26 30 32 34 35 35 37 38 39 42 42 43 43 43 42 42 41 40 40 42 41 34 33 30 31 29 26 23 21 19 16 16 16 19 22
18 19 19 19 18 18 19 18 15 19 18 19 21 24 26 29 32 33 34 34 36 39 39 41 43 43 45 45 45 46 45 42 43 44 44 42 39 37 33 31 27 24 21 20 17 16 16 17 20
20 22 20 18 17 17 22 20 13 16 15 19 21 23 25 28 30 32 35 35 38 39 40 41 43 45 46 47 48 48 46 47 46 45 44 45 43 41 38 34 29 27 23 22 19 18 18 17 18
20 22 17 14 16 18 22 18 15 13 15 20 23 24 26 27 29 33 35 36 40 42 42 43 44 47 49 51 52 51 49 49 48 48 47 47 45 45 43 39 33 30 26 24 22 19 20 19 20
20 18 19 14 16 17 21 23 16 14 15 21 22 25 27 27 29 34 35 37 41 43 44 46 45 47 50 53 53 51 50 50 51 49 49 48 49 48 45 42 38 33 30 26 24 23 22 23 23
16 23 26 24 14 18 17 22 18 14 16 19 21 25 26 28 31 33 36 38 41 44 47 50 49 48 49 52 54 53 51 49 50 51 51 51 51 49 49 46 42 37 34 31 28 27 26 27 27
25 26 24 25 22 18 23 25 20 18 17 19 22 23 25 29 34 35 37 39 42 46 46 48 50 52 52 52 51 54 52 52 49 51 51 52 50 47 46 48 49 47 38 36 31 29 28 27 27
23 23 23 23 22 24 26 25 26 18 18 19 21 22 24 30 33 36 36 40 46 48 48 51 52 53 53 53 54 56 55 53 50 48 48 46 45 47 46 45 54 50 47 33 34 29 29 27 26
24 25 25 25 22 30 30 30 29 17 16 16 20 23 27 32 35 37 38 44 49 51 51 56 55 56 56 54 53 55 52 47 46 41 41 45 48 48 49 50 46 56 48 38 32 32 30 28 28
26 27 28 28 30 30 33 34 24 17 17 17 18 22 28 34 37 37 40 46 52 53 54 56 56 58 58 54 52 56 48 43 40 42 42 44 48 49 49 50 54 50 54 43 43 37 35 32 32
33 27 27 29 36 38 34 42 30 20 19 19 19 24 29 33 35 37 42 52 53 52 53 55 56 58 56 51 59 54 50 49 45 41 42 45 47 50 47 48 50 53 48 52 40 38 37 34 34
31 31 30 31 35 37 33 33 35 15 23 18 21 25 31 33 36 39 48 51 53 52 55 55 58 56 56 58 56 53 48 45 60 55 40 49 47 48 48 45 49 52 47 57 43 39 39 37 35
31 36 34 32 31 37 33 29 35 24 23 17 21 28 31 34 36 43 48 50 53 54 56 56 58 59 59 58 59 52 50 53 55 55 33 54 50 49 48 46 46 51 62 50 50 40 43 40 38
29 35 43 40 36 38 30 39 33 26 20 16 23 29 31 35 43 47 49 52 53 58 57 60 62 63 62 60 56 50 47 56 56 54 52 53 48 48 48 46 44 46 45 53 50 40 43 45 40
31 31 36 45 45 43 42 43 37 20 18 19 24 30 34 39 42 46 49 52 54 56 59 61 64 65 63 60 56 50 44 47 53 51 51 50 48 48 47 46 44 43 44 46 49 55 40 46 42
33 33 29 36 39 46 40 35 27 21 22 25 30 34 37 39 43 47 50 52 51 56 58 60 61 62 60 57 55 50 45 40 52 53 52 51 49 47 46 46 44 42 40 42 45 38 50 47 44
29 25 35 33 45 49 42 40 39 26 27 30 34 35 38 41 45 48 49 49 54 53 56 57 58 59 58 57 54 52 46 45 50 52 53 52 50 49 49 49 46 43 44 41 44 48 54 45 45
31 32 30 33 33 45 53 44 24 26 28 31 33 35 41 42 45 48 49 50 54 53 55 57 59 60 60 57 58 54 47 45 41 48 52 49 48 48 46 49 49 46 44 42 43 50 44 47 43
28 29 27 36 41 36 42 49 33 33 23 29 33 36 38 41 46 49 47 55 56 57 58 60 62 62 59 58 61 52 49 40 45 50 49 47 50 48 46 45 49 48 47 42 42 42 47 53 50
Wind_Direction
146 131 126 111 98 83 67 71 81 63 64 60 70 70 72 74 61 65 64 37 38 49 49 53 79 98 104 132 139 135 116 96 54 27 7 350 336 314 307 293 290 290 290 289 293 292 290 290 289
158 130 117 99 71 75 71 74 61 57 59 66 74 72 70 66 53 66 49 20 25 31 24 34 51 64 93 104 111 117 135 150 289 318 325 328 330 327 316 302 291 288 288 287 288 290 289 286 283
118 112 93 84 68 53 63 57 49 55 58 51 54 66 61 58 48 53 23 13 9 14 16 11 16 15 36 42 62 67 31 334 306 305 315 317 318 319 319 310 301 293 287 285 284 284 284 286 278
76 85 86 70 46 50 41 31 38 45 54 55 47 50 56 26 42 4 328 331 357 4 6 7 1 1 359 354 351 346 325 307 304 303 295 311 312 311 311 311 304 296 292 286 285 280 279 281 273
62 67 68 60 42 42 44 34 35 44 42 43 44 50 44 14 354 346 348 343 340 344 348 354 354 350 346 340 335 331 323 312 296 293 297 301 304 306 304 304 303 298 294 288 285 281 276 274 266
34 44 42 42 30 35 37 24 31 20 29 33 38 42 41 8 351 348 347 347 342 338 339 342 343 346 345 341 328 323 317 312 308 296 293 299 298 295 300 299 298 297 297 293 285 280 276 269 261
13 13 23 21 23 29 24 16 14 16 16 20 24 35 21 359 352 351 351 348 345 341 339 335 333 337 341 338 331 319 314 311 308 305 299 297 297 294 292 295 294 293 293 293 291 284 275 265 256
7 10 14 14 8 14 18 16 17 13 19 31 18 14 6 360 359 354 352 350 348 348 346 342 335 328 329 328 326 322 315 308 305 303 300 297 294 293 294 292 292 291 291 291 289 286 274 262 252
9 359 360 357 356 1 14 4 7 18 19 17 19 18 14 5 359 360 360 353 348 347 345 344 340 337 327 323 321 317 314 310 307 304 298 295 293 292 290 287 286 287 289 289 289 285 271 259 250
358 349 350 358 353 353 354 360 4 13 8 10 9 10 11 7 4 2 2 359 354 351 345 342 339 336 337 331 323 314 307 309 308 304 299 296 290 288 287 287 281 283 287 288 286 280 267 254 251
353 344 353 351 350 352 356 360 4 1 357 3 2 4 6 4 3 1 1 359 357 355 348 346 341 337 335 336 330 322 313 307 304 303 298 294 291 285 284 284 284 281 285 287 284 277 265 255 248
346 352 351 349 350 352 355 358 2 5 6 14 7 5 2 359 359 358 356 355 353 351 349 344 342 337 333 330 327 324 320 316 307 298 296 293 288 285 280 278 278 278 279 280 277 274 267 259 252
348 347 349 350 353 355 355 355 355 1 14 13 8 3 359 359 357 358 357 357 354 350 350 347 341 337 331 328 325 321 318 317 313 302 296 293 289 283 279 277 273 270 271 271 265 262 259 260 257
349 339 341 348 352 357 349 348 352 360 19 6 3 1 358 356 356 357 355 354 351 349 347 345 341 335 332 329 325 321 319 316 312 308 299 293 288 282 278 274 270 266 264 264 258 252 250 249 252
350 343 352 353 354 350 348 340 341 5 7 359 355 355 353 356 357 355 353 352 349 347 345 343 340 336 333 328 324 321 318 316 313 309 304 295 288 282 277 273 266 261 259 255 254 251 250 247 250
352 352 347 349 347 349 350 341 350 352 353 349 351 350 350 353 354 352 351 350 348 346 345 343 340 338 334 330 325 321 319 315 312 309 306 301 290 282 277 271 264 257 253 248 245 242 244 245 244
360 347 339 342 344 346 345 336 342 346 345 344 348 349 350 350 351 352 351 350 349 347 344 341 339 336 332 329 326 323 319 316 313 309 304 299 294 286 274 269 264 253 244 242 240 243 240 245 245
346 338 339 336 342 336 331 327 335 336 338 341 346 350 349 347 347 349 350 352 349 346 343 341 338 335 330 327 327 325 321 317 314 309 303 298 293 289 286 270 264 261 232 232 235 236 239 240 240
346 340 333 333 340 332 327 325 322 326 334 337 343 348 348 346 347 349 351 352 347 345 343 340 337 334 331 329 327 326 322 319 316 310 304 300 295 290 284 277 267 258 258 235 231 231 230 234 232
345 338 332 336 340 335 325 317 323 317 322 334 341 343 344 345 346 348 349 347 346 343 340 337 335 333 332 328 327 326 322 318 315 315 309 296 288 281 280 270 274 258 252 240 231 226 227 229 222
342 336 334 331 331 326 322 320 322 325 330 334 340 344 346 345 344 346 347 347 344 342 340 338 336 334 333 329 329 327 321 317 313 313 310 299 283 277 277 269 264 273 253 242 226 225 221 223 227
339 346 338 332 331 327 337 323 332 321 324 329 338 342 344 344 345 345 345 344 343 341 340 338 337 336 335 335 330 328 324 316 310 309 311 302 285 273 274 271 266 261 263 251 236 220 222 223 220
337 341 333 328 322 322 327 322 333 325 320 319 335 341 342 344 344 343 344 343 341 341 340 339 338 338 337 333 330 327 321 316 295 298 310 298 288 272 273 277 272 265 263 258 231 219 219 222 220
336 333 330 323 323 326 329 323 331 325 318 325 336 340 342 342 343 343 342 340 339 340 340 340 340 339 338 336 332 326 321 316 300 296 306 291 283 270 270 270 271 268 257 265 242 233 225 221 221
338 337 334 335 332 326 339 329 318 330 342 333 335 338 340 342 342 341 339 339 339 339 340 339 339 338 339 338 335 333 327 310 292 290 297 286 282 267 270 265 265 264 262 255 252 234 228 224 222
336 335 332 327 327 323 326 322 327 337 341 338 341 340 340 341 342 340 339 339 339 340 339 340 339 339 340 339 337 334 329 319 297 296 297 294 286 270 271 267 266 265 264 263 263 236 232 229 216
335 328 334 324 324 322 324 328 335 339 336 338 337 338 338 340 340 340 339 339 340 339 340 341 340 341 341 340 338 335 329 326 303 297 294 288 284 278 272 266 263 269 267 261 256 256 234 230 227
324 334 328 327 326 324 327 323 321 326 327 332 333 335 336 339 339 339 339 340 340 341 341 342 342 342 342 340 338 334 330 323 311 301 294 286 282 278 272 259 257 260 259 261 255 252 247 229 227
321 317 320 321 317 320 323 325 340 333 326 327 332 334 336 338 338 338 339 340 340 341 342 342 343 343 342 342 338 332 330 323 319 307 294 287 282 278 280 264 258 259 259 258 258 249 247 226 227
318 315 312 313 319 314 312 308 320 323 330 331 334 334 336 337 338 339 339 339 340 341 342 343 343 343 343 341 337 336 332 326 317 300 291 289 279 276 277 271 257 254 251 258 253 254 245 236 226